Dewpoint
49 49 50 50 49 50 54 47 41 51 50 40 40 36 35 38 37 39 39 39 36 33 29 29 27 24 24 34 32 31 36 35 30 30 38 36 37 37 33 28 30 35 26 23
48 47 48 48 51 54 50 44 45 51 48 35 36 38 37 37 37 38 40 38 36 34 30 31 28 29 32 35 35 36 38 34 28 33 38 41 36 38 38 35 37 34 23 23
47 47 48 48 50 55 51 45 40 45 46 43 38 36 36 37 40 39 40 40 38 34 29 30 28 25 33 34 34 40 40 36 34 32 35 38 37 36 38 38 35 27 26 26
45 47 48 49 49 54 50 45 41 41 37 39 40 39 38 37 36 40 41 38 37 34 26 25 27 31 31 35 41 39 37 32 33 34 35 37 37 37 38 35 34 25 25 26
44 47 46 48 49 51 48 42 41 43 40 39 39 39 39 38 38 39 39 38 35 33 33 26 25 30 30 29 38 36 38 34 37 36 39 39 37 39 38 35 34 32 32 30
44 46 46 46 49 52 48 48 47 43 41 39 38 37 37 37 40 40 40 39 39 37 36 37 31 35 29 29 35 35 37 37 36 28 34 36 32 35 36 35 35 34 32 32
43 45 46 47 48 50 49 47 47 42 38 39 38 39 39 39 41 38 41 42 39 40 45 43 40 40 36 36 37 37 36 36 35 29 28 23 27 29 34 35 35 35 34 31
43 44 46 47 48 49 49 48 47 44 39 39 39 36 34 40 42 42 42 42 40 46 43 40 38 38 37 36 36 38 38 36 34 30 28 29 27 28 29 30 31 33 33 32
43 44 45 47 48 48 50 47 49 46 41 39 39 37 38 37 38 40 41 42 43 46 42 39 35 33 36 35 36 39 40 39 36 27 25 25 27 30 30 30 28 32 32 33
42 44 45 46 48 48 50 48 49 47 41 41 41 37 39 41 41 39 40 40 41 44 40 37 32 33 35 33 34 36 38 37 33 33 30 31 32 31 31 26 27 32 33 34
41 44 45 45 48 49 50 48 49 47 43 42 40 38 41 42 42 38 40 41 41 41 38 38 37 35 36 35 35 37 35 35 35 35 33 29 33 31 24 30 35 35 35 34
40 43 44 45 48 49 50 47 48 50 45 44 45 43 42 44 46 44 43 42 41 42 40 39 39 33 35 34 34 37 35 36 35 36 33 35 35 34 36 35 34 35 35 34
40 43 43 45 47 48 50 47 48 47 44 44 44 43 45 48 47 47 42 44 44 44 44 40 37 33 33 32 34 34 36 38 34 34 34 34 34 35 36 36 35 35 35 34
40 43 43 45 47 48 50 47 48 48 46 41 43 45 44 47 48 47 47 47 47 45 46 43 39 38 36 34 31 34 34 36 33 32 33 33 34 35 35 34 35 35 35 35
40 42 43 44 47 48 49 49 48 50 47 42 42 44 45 46 48 47 47 46 46 45 44 42 41 40 38 37 35 32 31 31 32 32 33 32 33 35 34 34 34 35 35 34
41 42 42 43 46 48 49 45 49 49 49 44 40 45 43 44 47 46 45 46 45 44 44 44 45 44 42 37 33 35 33 33 34 32 34 34 35 35 35 34 35 34 34 34
41 42 43 43 46 47 46 43 46 49 50 44 38 39 43 44 46 47 46 46 45 44 43 42 40 40 41 38 36 37 34 34 34 35 34 34 34 34 35 34 34 33 31 32
42 41 42 44 47 48 47 48 50 50 47 45 36 37 41 43 43 42 45 44 43 42 41 40 40 38 38 36 38 34 34 34 34 35 35 35 34 32 31 31 31 30 30 30
41 41 42 46 45 45 47 50 48 48 46 39 38 35 35 43 41 42 42 43 41 42 40 40 39 38 34 36 37 34 34 34 35 35 35 34 33 32 30 29 29 28 29 30
41 43 42 39 46 49 49 46 44 41 42 41 39 41 38 40 40 38 39 39 37 34 38 37 36 36 39 40 40 35 35 35 34 33 30 32 31 30 28 26 27 28 28 29
37 37 38 42 49 46 43 39 38 39 35 39 40 40 38 41 37 36 36 34 34 33 34 35 33 34 36 39 37 36 36 35 35 35 34 33 31 28 26 27 28 28 29 30
36 35 35 39 42 38 35 35 35 35 35 38 39 39 39 38 39 35 34 32 33 31 34 33 31 33 33 35 35 36 35 35 35 34 33 30 26 27 27 28 29 30 31 31
37 34 32 36 35 31 30 29 32 32 36 36 36 35 35 35 36 33 30 32 31 31 30 28 29 31 32 33 34 34 34 34 33 29 27 27 26 27 28 29 30 30 30 30
31 32 30 31 31 30 27 24 28 32 34 36 35 33 33 33 30 31 22 31 29 27 24 22 28 30 33 34 33 31 28 26 26 26 26 26 26 27 28 28 29 28 27 27
30 31 29 31 33 32 32 28 34 33 38 36 34 32 32 29 31 27 27 26 24 24 23 26 26 28 30 29 25 25 25 25 25 24 25 26 26 25 25 25 25 24 22 20
30 31 30 33 31 30 32 33 33 37 38 34 33 27 21 21 24 23 17 20 20 24 27 27 26 29 28 25 24 25 25 24 24 24 24 23 23 22 20 19 20 19 18 16
31 31 33 33 29 30 32 34 35 38 36 31 29 22 21 24 16 17 21 21 26 31 23 23 27 29 26 24 24 24 24 23 23 24 24 22 20 18 16 14 13 14 14 14
Lifted_Index
4 4 5 5 4 2 1 1 2 2 3 4 4 4 4 5 5 5 5 4 4 4 3 3 3 3 3 2 2 2 3 3 2 1 1 0 0 0 1 2 2 1 0 1
5 5 6 5 4 2 1 1 2 2 3 3 4 3 4 4 4 5 4 4 4 4 4 4 4 3 2 2 2 3 3 3 1 1 1 1 1 1 1 2 2 1 0 1
6 6 7 6 4 2 1 1 1 2 3 4 3 3 3 4 4 4 4 4 4 4 4 4 4 3 3 2 3 4 4 3 1 1 1 1 1 1 1 1 1 0 0 1
7 7 7 6 5 2 1 1 1 2 3 3 3 3 4 4 4 4 3 3 4 4 4 4 4 4 3 3 3 4 4 2 1 1 1 1 1 1 1 1 1 0 0 1
8 8 7 7 5 2 1 1 2 2 3 3 3 3 4 4 4 4 3 3 4 4 4 4 4 4 3 3 3 3 3 2 1 0 0 1 1 1 1 1 0 0 0 1
8 8 8 7 5 3 2 2 2 2 2 2 3 3 4 4 4 4 4 4 4 4 4 4 4 4 3 3 3 3 2 2 1 0 0 0 0 0 0 0 0 0 1 1
9 8 8 8 6 4 2 2 2 2 2 2 3 3 4 4 4 4 4 4 4 3 3 3 3 3 3 3 3 3 2 2 2 1 1 0 1 1 1 1 1 1 1 1
9 8 8 8 7 5 3 2 2 2 2 2 3 3 4 4 4 4 4 4 4 3 2 2 2 3 3 3 3 3 3 3 2 2 1 1 1 1 1 1 1 1 1 1
9 9 8 8 6 4 3 3 3 3 3 3 3 3 4 4 4 4 4 4 3 3 2 2 2 2 3 3 2 2 2 3 2 2 2 1 1 2 2 1 1 1 2 1
9 9 8 8 6 4 3 3 3 3 3 3 3 4 4 5 5 4 4 3 3 2 2 2 2 2 2 2 2 2 2 2 2 2 2 1 1 2 2 2 2 2 2 2
9 9 8 8 6 4 3 3 3 3 3 3 4 4 4 5 5 4 4 3 2 2 2 2 2 2 2 2 2 1 1 1 2 1 1 1 1 1 2 2 2 2 3 3
9 9 8 8 6 5 3 3 3 4 3 3 4 4 4 5 5 5 4 3 3 2 2 2 2 1 1 1 1 1 1 1 1 1 1 1 1 1 2 2 3 3 3 3
10 9 9 8 7 5 4 3 3 3 3 3 3 4 4 5 6 5 5 4 3 2 2 2 1 1 1 1 1 1 1 1 1 1 1 1 1 2 2 2 3 3 4 4
10 10 9 8 7 5 4 3 3 3 3 3 3 4 5 5 6 5 5 4 3 2 2 2 1 1 1 1 1 1 1 1 1 1 1 1 1 2 2 3 3 4 4 4
10 10 10 9 7 5 4 3 3 3 3 3 3 4 4 5 5 5 5 4 3 2 2 2 2 2 2 2 1 1 1 2 2 1 1 1 1 2 2 3 4 4 5 5
10 10 10 9 7 5 4 3 3 3 3 2 3 3 4 5 5 5 5 4 4 3 2 2 2 2 2 2 1 2 2 2 2 2 1 2 2 2 3 4 4 5 5 5
11 10 10 9 7 4 3 3 3 3 3 2 2 3 3 4 4 4 4 4 4 3 3 3 3 3 2 2 2 2 2 2 2 2 2 2 2 3 4 4 5 6 6 6
11 10 10 8 6 4 3 2 2 2 2 2 3 3 3 3 3 3 4 4 4 4 3 3 3 3 3 3 2 2 3 3 3 3 3 3 3 3 4 5 5 6 6 6
11 10 8 6 4 3 3 2 2 2 2 2 3 3 3 3 3 3 3 3 3 3 3 3 3 3 3 3 2 2 2 3 3 3 3 3 3 3 4 5 6 6 6 7
9 8 6 4 3 2 2 2 2 2 2 3 3 3 3 3 2 2 2 3 3 3 3 4 3 3 3 2 2 2 3 3 3 3 3 3 3 4 4 5 6 7 7 8
9 8 5 4 2 2 2 2 2 2 3 3 3 3 2 2 2 2 2 3 3 4 4 4 4 3 3 3 3 3 3 3 3 4 4 4 4 5 5 6 7 8 9 10
9 8 6 4 2 2 2 2 3 3 4 4 3 3 2 2 2 2 3 3 3 4 4 4 3 3 3 3 3 4 4 4 4 4 5 5 6 6 6 7 8 9 11 12
8 7 5 3 2 2 2 3 4 4 4 4 3 2 2 2 2 2 2 3 3 4 4 3 3 2 3 4 4 4 4 4 4 5 6 6 7 7 8 9 10 12 13 13
6 5 3 2 2 2 3 4 4 4 4 3 2 2 1 2 2 2 3 3 3 3 3 3 3 3 4 5 5 5 4 4 5 5 6 7 7 8 9 11 12 13 13 13
5 4 2 2 3 3 4 4 4 4 3 2 2 2 2 2 3 3 4 4 4 3 3 3 4 4 5 5 5 5 4 4 5 6 6 7 7 8 10 12 13 13 13 13
4 4 3 3 3 4 4 4 4 4 3 2 2 2 2 3 3 3 4 3 3 3 3 4 5 5 5 5 5 5 5 5 6 6 7 8 9 10 11 12 13 13 13 13
4 4 4 4 4 4 4 4 4 3 3 3 3 3 3 3 3 3 3 3 3 3 3 4 5 5 6 5 5 5 5 5 6 7 8 9 10 11 12 12 12 13 13 13